Arctic Village, AK

12:13 AM AKDT on August 24, 2016 (GMT -0800)
Arctic Village

Weather History for PARC - November, 2013

Change the Weather History Date:

Thursday, November 28, 2013

  Actual Average Record
Temperature  
Mean Temperature -5 °F -  
Max Temperature 1 °F -11 °F 40 °F (1962)
Min Temperature -11 °F -30 °F -45 °F (1990)
Degree Days  
Heating Degree Days 70    
Moisture  
Dew Point -13 °F    
Average Humidity 67    
Maximum Humidity 100    
Minimum Humidity 24    
Precipitation  
Precipitation 0.00 in - - ()
Sea Level Pressure  
Sea Level Pressure 29.58 in    
Wind  
Wind Speed 0 mph (North)    
Max Wind Speed 0 mph    
Max Gust Speed -    
Visibility 3 miles    
Events      
Averages and records for this station are not official NWS values.
T = Trace of Precipitation, MM = Missing Value Source: NWS Daily Summary

Daily Weather History Graph

Daily Weather History Graph

Search for Another Location

Airport or City:

Trip Planner

Search our weather history database for the weather conditions in past years. The results will help you decide how hot, cold, wet, or windy it might be!

Date:

Astronomy

Nov. 28, 2013 Rise Set
Actual Time 11:07 AM AKST 1:52 PM AKST
Civil Twilight 9:20 AM AKST 3:39 PM AKST
Nautical Twilight 7:59 AM AKST 5:01 PM AKST
Astronomical Twilight 6:49 AM AKST 6:10 PM AKST
Moon 3:33 AM AKST (11/28) 1:42 PM AKST (11/28)
Length of Visible Light 6h 19m
Length of Day
2h 45m
Waning Crescent, 21% of the Moon is Illuminated
Nov 28
Waning Crescent
Dec 2
New
Dec 9
First Quarter
Dec 17
Full
Dec 25
Last Quarter

Hourly Weather History & Observations

Time (AKST) Temp. Dew Point Humidity Pressure Visibility Wind Dir Wind Speed Gust Speed Precip Events Conditions
12:16 AM -11.2 °F -27.4 °F 45% 29.58 in 3.0 mi Calm Calm - N/A   Overcast
12:36 AM -11.2 °F -22.0 °F 59% 29.58 in 2.0 mi Calm Calm - N/A   Overcast
12:56 AM -9.4 °F -11.2 °F 92% 29.57 in 1.8 mi Calm Calm - N/A   Overcast
1:16 AM -11.2 °F -25.6 °F 49% 29.57 in 1.5 mi Calm Calm - N/A   Overcast
1:36 AM -9.4 °F - N/A% 29.57 in 1.8 mi Calm Calm - N/A   Overcast
1:56 AM -9.4 °F - N/A% 29.56 in 1.2 mi Calm Calm - N/A   Overcast
2:16 AM -9.4 °F - N/A% 29.55 in 1.2 mi Calm Calm - N/A   Overcast
2:36 AM -7.6 °F - N/A% 29.54 in 1.2 mi Calm Calm - N/A   Overcast
2:56 AM -7.6 °F -29.2 °F 34% 29.54 in 1.5 mi Calm Calm - N/A   Overcast
3:16 AM -7.6 °F -23.8 °F 45% 29.54 in 1.0 mi Calm Calm - N/A   Overcast
3:36 AM -7.6 °F -16.6 °F 65% 29.54 in 1.2 mi Calm Calm - N/A   Overcast
3:56 AM -7.6 °F -16.6 °F 65% 29.53 in 1.8 mi Calm Calm - N/A   Overcast
4:16 AM -5.8 °F -23.8 °F 42% 29.53 in 1.8 mi Calm Calm - N/A   Overcast
4:36 AM -5.8 °F - N/A% 29.53 in 2.0 mi Calm Calm - N/A   Overcast
4:56 AM -5.8 °F -31.0 °F 29% 29.52 in 1.8 mi Calm Calm - N/A   Overcast
5:16 AM -4.0 °F -27.4 °F 32% 29.52 in 2.0 mi Calm Calm - N/A   Overcast
5:36 AM -4.0 °F -23.8 °F 38% 29.52 in 2.0 mi Calm Calm - N/A   Overcast
5:56 AM -2.2 °F -14.8 °F 55% 29.52 in 2.5 mi Calm Calm - N/A   Overcast
6:16 AM -4.0 °F -7.6 °F 85% 29.51 in 2.0 mi Calm Calm - N/A   Overcast
6:36 AM -2.2 °F - N/A% 29.52 in 1.5 mi Calm Calm - N/A   Overcast
6:56 AM -2.2 °F -27.4 °F 29% 29.52 in 1.8 mi Calm Calm - N/A   Overcast
7:16 AM -2.2 °F -23.8 °F 35% 29.52 in 2.0 mi Calm Calm - N/A   Overcast
7:36 AM -2.2 °F -16.6 °F 50% 29.52 in 1.8 mi Calm Calm - N/A   Overcast
7:56 AM -2.2 °F -7.6 °F 78% 29.52 in 3.0 mi Calm Calm - N/A   Overcast
8:16 AM -2.2 °F -14.8 °F 55% 29.52 in 2.0 mi Calm Calm - N/A   Overcast
8:36 AM -2.2 °F -31.0 °F 24% 29.52 in 2.5 mi Calm Calm - N/A   Overcast
8:56 AM -0.4 °F -25.6 °F 30% 29.53 in 2.0 mi Calm Calm - N/A   Overcast
9:16 AM -0.4 °F -22.0 °F 36% 29.53 in 2.0 mi Calm Calm - N/A   Overcast
9:36 AM -0.4 °F -16.6 °F 46% 29.54 in 1.8 mi Calm Calm - N/A   Overcast
9:56 AM -0.4 °F -0.4 °F 100% 29.54 in 1.8 mi Calm Calm - N/A   Overcast
10:16 AM -0.4 °F -18.4 °F 43% 29.54 in 1.2 mi Calm Calm - N/A   Overcast
10:36 AM -0.4 °F -27.4 °F 27% 29.54 in 1.0 mi Calm Calm - N/A   Overcast
10:56 AM -0.4 °F -14.8 °F 51% 29.55 in 1.0 mi Calm Calm - N/A   Overcast
11:16 AM 1.4 °F -2.2 °F 85% 29.56 in 0.8 mi Calm Calm - N/A   Overcast
11:36 AM 1.4 °F -2.2 °F 85% 29.56 in 1.0 mi Calm Calm - N/A   Overcast
11:56 AM 1.4 °F -2.2 °F 85% 29.57 in 1.2 mi Calm Calm - N/A   Overcast
12:16 PM 1.4 °F -0.4 °F 92% 29.57 in 1.5 mi Calm Calm - N/A   Overcast
12:36 PM 1.4 °F -0.4 °F 92% 29.57 in 1.5 mi Calm Calm - N/A   Overcast
12:56 PM 1.4 °F -0.4 °F 92% 29.58 in 1.8 mi Calm Calm - N/A   Overcast
1:16 PM 1.4 °F -0.4 °F 92% 29.58 in 1.8 mi Calm Calm - N/A   Overcast
1:36 PM 1.4 °F -0.4 °F 92% 29.58 in 1.5 mi Calm Calm - N/A   Overcast
1:56 PM -0.4 °F -2.2 °F 92% 29.59 in 2.0 mi Calm Calm - N/A   Overcast
2:16 PM -0.4 °F -4.0 °F 85% 29.59 in 1.5 mi Calm Calm - N/A   Overcast
2:36 PM -2.2 °F -4.0 °F 92% 29.60 in 2.5 mi Calm Calm - N/A   Overcast
2:56 PM -2.2 °F -7.6 °F 78% 29.60 in 10.0 mi Calm Calm - N/A   Mostly Cloudy
3:16 PM -2.2 °F -5.8 °F 85% 29.60 in 8.0 mi Calm Calm - N/A   Scattered Clouds
3:36 PM -2.2 °F -5.8 °F 85% 29.61 in 10.0 mi Calm Calm - N/A   Mostly Cloudy
3:56 PM -2.2 °F -9.4 °F 71% 29.61 in 10.0 mi Calm Calm - N/A   Mostly Cloudy
4:16 PM -2.2 °F -5.8 °F 85% 29.61 in 7.0 mi Calm Calm - N/A   Overcast
4:36 PM -2.2 °F -9.4 °F 71% 29.62 in 10.0 mi Calm Calm - N/A   Overcast
4:56 PM -2.2 °F -7.6 °F 78% 29.62 in 5.0 mi Calm Calm - N/A   Overcast
5:16 PM -2.2 °F -7.6 °F 78% 29.62 in 5.0 mi Calm Calm - N/A   Overcast
5:36 PM -2.2 °F -31.0 °F 24% 29.63 in 10.0 mi Calm Calm - N/A   Mostly Cloudy
5:56 PM -2.2 °F -16.6 °F 50% 29.63 in 10.0 mi Calm Calm - N/A   Mostly Cloudy
6:16 PM -2.2 °F -5.8 °F 85% 29.63 in 5.0 mi Calm Calm - N/A   Overcast
6:36 PM -2.2 °F -5.8 °F 85% 29.63 in 5.0 mi Calm Calm - N/A   Overcast
6:56 PM -2.2 °F -7.6 °F 78% 29.64 in 3.0 mi Calm Calm - N/A   Overcast
7:16 PM -2.2 °F -2.2 °F 100% 29.63 in 3.0 mi Calm Calm - N/A   Overcast
7:36 PM -4.0 °F -9.4 °F 78% 29.63 in 7.0 mi Calm Calm - N/A   Overcast
7:56 PM -4.0 °F -5.8 °F 92% 29.63 in 10.0 mi Calm Calm - N/A   Overcast
8:16 PM -4.0 °F -7.6 °F 85% 29.62 in 10.0 mi Calm Calm - N/A   Overcast
8:36 PM -4.0 °F -11.2 °F 71% 29.63 in 4.0 mi Calm Calm - N/A   Overcast
8:56 PM -4.0 °F -4.0 °F 100% 29.63 in 5.0 mi Calm Calm - N/A   Overcast
9:16 PM -5.8 °F -16.6 °F 60% 29.63 in 10.0 mi Calm Calm - N/A   Overcast
9:36 PM -5.8 °F -5.8 °F 100% 29.63 in 4.0 mi Calm Calm - N/A   Overcast
9:56 PM -5.8 °F -20.2 °F 50% 29.64 in 2.0 mi Calm Calm - N/A   Overcast
10:16 PM -5.8 °F -5.8 °F 100% 29.64 in 2.5 mi Calm Calm - N/A   Overcast
10:36 PM -5.8 °F -18.4 °F 55% 29.65 in 2.5 mi Calm Calm - N/A   Overcast
10:56 PM -5.8 °F -5.8 °F 100% 29.66 in 2.5 mi Calm Calm - N/A   Overcast
11:16 PM -5.8 °F - N/A% 29.67 in 4.0 mi Calm Calm - N/A   Overcast
11:36 PM -5.8 °F -29.2 °F 32% 29.67 in 2.0 mi Calm Calm - N/A   Overcast
11:56 PM -5.8 °F -27.4 °F 35% 29.68 in 2.0 mi Calm Calm - N/A   Overcast